Saltar para o conteúdo principal

Porto Santo

ID 1200524 · 33.0740, -16.3487 mapa

Última leitura · 2026-05-09 19:00 (Europe/Lisbon)

Temperatura
17.9 °C
Humidade
Pressão
1,013.5 hPa
Precipitação
0.0 mm
Radiação
1,624 W/m²
Velocidade do vento
28.4 km/h
Direcção do vento
W · Oeste

Histórico de 24 horas

Hora (Europe/Lisbon) Temperatura Humidade Pressão Chuva Vento Direcção
2026-05-09 19:00 17.9 °C 1,013.5 0.0 mm 28.4 km/h W
2026-05-09 18:00 18.1 °C 1,013.2 0.0 mm 33.8 km/h W
2026-05-09 17:00 18.3 °C 1,013.0 0.0 mm 27.7 km/h W
2026-05-09 16:00 18.3 °C 1,013.0 0.0 mm 25.6 km/h W
2026-05-09 15:00 18.0 °C 1,012.9 0.6 mm 21.6 km/h W
2026-05-09 14:00 19.5 °C 1,012.8 0.0 mm 25.2 km/h W
2026-05-09 13:00 18.7 °C 1,012.8 0.0 mm 25.9 km/h W
2026-05-09 12:00 18.5 °C 1,012.6 0.0 mm 26.3 km/h W
2026-05-09 11:00 17.5 °C 1,012.3 0.0 mm 25.2 km/h W
2026-05-09 10:00 17.0 °C 1,011.7 0.0 mm 25.6 km/h W
2026-05-09 09:00 16.3 °C 1,011.1 0.0 mm 29.2 km/h W
2026-05-09 08:00 15.9 °C 1,010.5 0.0 mm 28.8 km/h W
2026-05-09 07:00 15.5 °C 1,009.9 0.0 mm 26.6 km/h W
2026-05-09 06:00 15.5 °C 1,009.8 0.4 mm 26.3 km/h W
2026-05-09 05:00 16.2 °C 1,009.7 0.0 mm 28.1 km/h W
2026-05-09 04:00 16.1 °C 1,009.8 0.0 mm 28.4 km/h W
2026-05-09 03:00 16.0 °C 1,009.8 0.0 mm 24.5 km/h W
2026-05-09 02:00 16.2 °C 1,009.9 0.0 mm 26.3 km/h W
2026-05-09 01:00 16.1 °C 1,009.9 0.1 mm 28.4 km/h NW
2026-05-09 00:00 16.4 °C 1,009.7 2.2 mm 36.0 km/h NW
2026-05-08 23:00 16.6 °C 1,009.2 0.0 mm 33.5 km/h W
2026-05-08 22:00 17.0 °C 1,008.4 0.0 mm 38.5 km/h W
2026-05-08 21:00 16.8 °C 1,007.7 0.0 mm 35.6 km/h W
2026-05-08 20:00 17.4 °C 1,007.3 0.0 mm 39.6 km/h W